"read_dt","SO2 (ppb)","flags","PMT voltage (V)","lamp voltage (V)","lamp intensity (Hz)","internal temp (C)","react chamber temp (C)","sample flow (l/min)","pres (mmHg)","SO2 bkg (ppb)","SO2 coefficient"
2013-12-24 00:00:00,1968E-4,5C000000,-0724,0971,10871,026.3,045.3,0.397,745.2,01.17,0.508
2013-12-24 00:01:00,2487E-4,5C000000,-0724,0971,10927,026.3,045.3,0.398,745.2,01.17,0.508
2013-12-24 00:02:00,1459E-4,5C000000,-0724,0971,10805,026.3,045.3,0.397,745.1,01.17,0.508
2013-12-24 00:03:00,9008E-5,5C000000,-0724,0970,10878,026.3,045.3,0.397,745.1,01.17,0.508
2013-12-24 00:04:00,1004E-4,5C000000,-0724,0970,10929,026.3,045.3,0.398,745.2,01.17,0.508
2013-12-24 00:05:00,2601E-4,5C000000,-0724,0972,10905,026.3,045.3,0.397,745.2,01.17,0.508
2013-12-24 00:06:00,2361E-4,5C000000,-0724,0971,10838,026.3,045.3,0.398,745.1,01.17,0.508
2013-12-24 00:07:00,1910E-4,5C000000,-0724,0970,10927,026.3,045.3,0.397,745.1,01.17,0.508
2013-12-24 00:08:00,1231E-4,5C000000,-0724,0970,10809,026.3,045.3,0.397,745.1,01.17,0.508
2013-12-24 00:09:00,2369E-4,5C000000,-0724,0971,10776,026.3,045.3,0.398,745.1,01.17,0.508
2013-12-24 00:10:00,1698E-4,5C000000,-0724,0971,10948,026.3,045.3,0.397,745.1,01.17,0.508
2013-12-24 00:11:00,2172E-4,5C000000,-0724,0971,10741,026.3,045.3,0.398,745.0,01.17,0.508
2013-12-24 00:12:00,1711E-4,5C000000,-0724,0971,10861,026.3,045.3,0.397,745.1,01.17,0.508
2013-12-24 00:13:00,1568E-4,5C000000,-0724,0971,10756,026.3,045.3,0.397,745.0,01.17,0.508
2013-12-24 00:14:00,1111E-4,5C000000,-0724,0971,10833,026.3,045.3,0.398,745.0,01.17,0.508
2013-12-24 00:15:00,1910E-4,5C000000,-0724,0972,10822,026.3,045.3,0.397,745.0,01.17,0.508
2013-12-24 00:16:00,1761E-4,5C000000,-0724,0972,10903,026.3,045.3,0.397,745.1,01.17,0.508
2013-12-24 00:17:00,2144E-4,5C000000,-0724,0970,10728,026.3,045.3,0.398,745.0,01.17,0.508
2013-12-24 00:18:00,2112E-4,5C000000,-0724,0970,10847,026.3,045.3,0.397,745.0,01.17,0.508
2013-12-24 00:19:00,2217E-4,5C000000,-0724,0971,10835,026.3,045.3,0.398,745.0,01.17,0.508
2013-12-24 00:20:00,1885E-4,5C000000,-0724,0972,10873,026.3,045.3,0.397,745.0,01.17,0.508
2013-12-24 00:21:00,2681E-4,5C000000,-0724,0971,10895,026.2,045.3,0.397,745.0,01.17,0.508
2013-12-24 00:22:00,2803E-4,5C000000,-0724,0970,10700,026.2,045.3,0.398,745.0,01.17,0.508
2013-12-24 00:23:00,1131E-4,5C000000,-0724,0970,10819,026.3,045.3,0.397,745.0,01.17,0.508
2013-12-24 00:24:00,1421E-4,5C000000,-0724,0971,10913,026.3,045.3,0.398,745.0,01.17,0.508
2013-12-24 00:25:00,2391E-4,5C000000,-0724,0971,10917,026.3,045.3,0.397,745.0,01.17,0.508
2013-12-24 00:26:00,2184E-4,5C000000,-0724,0971,10845,026.3,045.3,0.397,745.0,01.17,0.508
2013-12-24 00:27:00,1806E-4,5C000000,-0724,0971,10905,026.2,045.3,0.398,745.0,01.17,0.508
2013-12-24 00:28:00,2918E-4,5C000000,-0724,0970,10836,026.3,045.3,0.397,745.1,01.17,0.508
2013-12-24 00:29:00,1480E-4,5C000000,-0724,0971,10861,026.2,045.3,0.398,745.0,01.17,0.508
2013-12-24 00:30:00,2789E-4,5C000000,-0724,0971,10512,026.2,045.3,0.397,745.0,01.17,0.508
2013-12-24 00:31:00,2445E-4,5C000000,-0724,0971,10773,026.2,045.3,0.398,745.0,01.17,0.508
2013-12-24 00:32:00,2295E-4,5C000000,-0724,0970,10859,026.2,045.3,0.397,745.0,01.17,0.508
2013-12-24 00:33:00,1746E-4,5C000000,-0724,0971,10883,026.2,045.3,0.398,745.0,01.17,0.508
2013-12-24 00:34:00,2248E-4,5C000000,-0724,0970,10815,026.2,045.3,0.398,745.0,01.17,0.508
2013-12-24 00:35:00,2618E-4,5C000000,-0724,0970,10806,026.2,045.3,0.397,745.0,01.17,0.508
2013-12-24 00:36:00,2602E-4,5C000000,-0724,0971,10878,026.2,045.3,0.398,745.0,01.17,0.508
2013-12-24 00:37:00,2012E-4,5C000000,-0724,0971,10882,026.2,045.3,0.397,745.0,01.17,0.508
2013-12-24 00:38:00,1974E-4,5C000000,-0724,0971,10719,026.2,045.3,0.398,745.0,01.17,0.508
2013-12-24 00:39:00,2224E-4,5C000000,-0724,0971,10886,026.2,045.3,0.398,745.0,01.17,0.508
2013-12-24 00:40:00,2456E-4,5C000000,-0724,0971,10923,026.2,045.3,0.397,745.0,01.17,0.508
2013-12-24 00:41:00,3405E-4,5C000000,-0724,0971,10857,026.2,045.3,0.398,745.0,01.17,0.508
2013-12-24 00:42:00,2574E-4,5C000000,-0724,0971,10905,026.2,045.3,0.398,745.0,01.17,0.508
2013-12-24 00:43:00,2516E-4,5C000000,-0724,0971,10833,026.2,045.3,0.397,745.0,01.17,0.508
2013-12-24 00:44:00,1663E-4,5C000000,-0724,0970,10788,026.2,045.3,0.398,745.0,01.17,0.508
2013-12-24 00:45:00,1852E-4,5C000000,-0724,0971,10861,026.2,045.3,0.397,745.0,01.17,0.508
2013-12-24 00:46:00,2833E-4,5C000000,-0724,0970,10862,026.2,045.3,0.397,745.0,01.17,0.508
2013-12-24 00:47:00,2484E-4,5C000000,-0724,0971,10823,026.2,045.3,0.398,745.0,01.17,0.508
2013-12-24 00:48:00,2795E-4,5C000000,-0724,0972,10702,026.3,045.3,0.397,745.0,01.17,0.508
2013-12-24 00:49:00,2424E-4,5C000000,-0724,0970,10923,026.3,045.3,0.398,745.0,01.17,0.508
2013-12-24 00:50:00,2655E-4,5C000000,-0724,0971,10794,026.2,045.3,0.398,745.0,01.17,0.508
2013-12-24 00:51:00,2905E-4,5C000000,-0724,0970,10696,026.2,045.3,0.397,745.0,01.17,0.508
2013-12-24 00:52:00,2340E-4,5C000000,-0724,0971,10835,026.2,045.3,0.398,745.0,01.17,0.508
2013-12-24 00:53:00,2518E-4,5C000000,-0724,0971,10814,026.2,045.3,0.397,745.0,01.17,0.508
2013-12-24 00:54:00,2636E-4,5C000000,-0724,0971,10860,026.2,045.3,0.397,745.0,01.17,0.508
2013-12-24 00:55:00,1920E-4,5C000000,-0724,0971,10808,026.3,045.3,0.398,745.0,01.17,0.508
2013-12-24 00:56:00,2725E-4,5C000000,-0724,0970,10815,026.2,045.3,0.397,745.0,01.17,0.508
2013-12-24 00:57:00,1941E-4,5C000000,-0724,0971,10820,026.2,045.3,0.398,745.0,01.17,0.508
2013-12-24 00:58:00,2373E-4,5C000000,-0724,0971,10878,026.2,045.3,0.397,745.0,01.17,0.508
2013-12-24 00:59:00,2643E-4,5C000000,-0724,0971,10909,026.2,045.3,0.397,745.0,01.17,0.508
2013-12-24 01:00:00,2999E-4,5C000000,-0724,0972,10826,026.2,045.3,0.398,745.0,01.17,0.508
2013-12-24 01:01:00,1006E-4,5C000000,-0724,0970,10847,026.2,045.3,0.397,745.0,01.17,0.508
2013-12-24 01:02:00,2342E-4,5C000000,-0724,0971,10658,026.2,045.3,0.398,745.0,01.17,0.508
2013-12-24 01:03:00,1609E-4,5C000000,-0724,0971,10913,026.2,045.3,0.397,745.0,01.17,0.508
2013-12-24 01:04:00,2326E-4,5C000000,-0724,0971,10756,026.2,045.3,0.398,745.0,01.17,0.508
2013-12-24 01:05:00,1811E-4,5C000000,-0724,0971,10798,026.2,045.3,0.398,745.0,01.17,0.508
2013-12-24 01:06:00,2638E-4,5C000000,-0724,0970,10671,026.2,045.3,0.397,745.0,01.17,0.508
2013-12-24 01:07:00,2017E-4,5C000000,-0724,0971,10836,026.2,045.3,0.398,745.0,01.17,0.508
2013-12-24 01:08:00,2413E-4,5C000000,-0724,0971,10719,026.2,045.3,0.397,745.0,01.17,0.508
2013-12-24 01:09:00,1921E-4,5C000000,-0724,0970,10848,026.2,045.3,0.398,745.0,01.17,0.508
2013-12-24 01:10:00,2164E-4,5C000000,-0724,0971,10871,026.2,045.3,0.398,745.0,01.17,0.508
2013-12-24 01:11:00,2513E-4,5C000000,-0724,0971,10747,026.2,045.3,0.397,745.0,01.17,0.508
2013-12-24 01:12:00,1915E-4,5C000000,-0724,0972,10892,026.2,045.3,0.398,745.0,01.17,0.508
2013-12-24 01:13:00,1972E-4,5C000000,-0724,0971,10847,026.2,045.3,0.398,745.0,01.17,0.508
2013-12-24 01:14:00,2325E-4,5C000000,-0724,0971,10820,026.2,045.3,0.397,745.0,01.17,0.508
2013-12-24 01:15:00,2538E-4,5C000000,-0724,0971,10717,026.2,045.3,0.398,745.0,01.17,0.508
2013-12-24 01:16:00,2432E-4,5C000000,-0724,0971,10831,026.2,045.3,0.397,745.0,01.17,0.508
2013-12-24 01:17:00,2137E-4,5C000000,-0724,0971,10715,026.2,045.3,0.397,745.0,01.17,0.508
2013-12-24 01:18:00,2634E-4,5C000000,-0724,0970,10782,026.2,045.3,0.398,745.0,01.17,0.508
2013-12-24 01:19:00,1733E-4,5C000000,-0724,0970,10798,026.2,045.3,0.397,745.0,01.17,0.508
2013-12-24 01:20:00,2019E-4,5C000000,-0724,0971,10909,026.2,045.3,0.398,745.0,01.17,0.508
2013-12-24 01:21:00,2382E-4,5C000000,-0724,0971,10934,026.2,045.3,0.398,745.0,01.17,0.508
2013-12-24 01:22:00,1842E-4,5C000000,-0724,0971,10942,026.2,045.3,0.397,745.0,01.17,0.508
2013-12-24 01:23:00,1547E-4,5C000000,-0724,0971,10568,026.2,045.3,0.398,745.0,01.17,0.508
2013-12-24 01:24:00,2498E-4,5C000000,-0724,0970,10832,026.2,045.3,0.398,745.0,01.17,0.508
2013-12-24 01:25:00,2005E-4,5C000000,-0724,0970,10672,026.2,045.3,0.397,745.0,01.17,0.508
2013-12-24 01:26:00,2461E-4,5C000000,-0724,0972,10863,026.2,045.3,0.398,745.0,01.17,0.508
2013-12-24 01:27:00,2505E-4,5C000000,-0724,0970,10835,026.2,045.3,0.397,745.0,01.17,0.508
2013-12-24 01:28:00,2177E-4,5C000000,-0724,0970,10816,026.2,045.3,0.397,745.0,01.17,0.508
2013-12-24 01:29:00,2597E-4,5C000000,-0724,0971,10683,026.2,045.3,0.398,745.0,01.17,0.508
2013-12-24 01:30:00,2430E-4,5C000000,-0724,0970,10937,026.2,045.3,0.397,745.0,01.17,0.508
2013-12-24 01:31:00,3152E-4,5C000000,-0724,0971,10756,026.2,045.3,0.398,745.0,01.17,0.508
2013-12-24 01:32:00,2207E-4,5C000000,-0724,0971,10805,026.2,045.3,0.397,744.9,01.17,0.508
2013-12-24 01:33:00,2227E-4,5C000000,-0724,0971,10687,026.2,045.3,0.397,744.9,01.17,0.508
2013-12-24 01:34:00,1852E-4,5C000000,-0724,0971,10781,026.2,045.3,0.398,744.9,01.17,0.508
2013-12-24 01:35:00,1880E-4,5C000000,-0724,0971,10774,026.2,045.3,0.397,744.9,01.17,0.508
2013-12-24 01:36:00,2276E-4,5C000000,-0724,0972,10923,026.2,045.3,0.398,744.9,01.17,0.508
2013-12-24 01:37:00,2582E-4,5C000000,-0724,0971,10856,026.2,045.3,0.398,744.9,01.17,0.508
2013-12-24 01:38:00,2471E-4,5C000000,-0724,0971,10830,026.2,045.3,0.397,744.9,01.17,0.508
2013-12-24 01:39:00,1973E-4,5C000000,-0724,0972,10930,026.2,045.3,0.398,744.9,01.17,0.508
2013-12-24 01:40:00,2867E-4,5C000000,-0724,0971,10903,026.2,045.3,0.398,744.9,01.17,0.508
2013-12-24 01:41:00,1183E-4,5C000000,-0724,0972,10868,026.2,045.3,0.397,744.9,01.17,0.508
2013-12-24 01:42:00,2308E-4,5C000000,-0724,0971,10814,026.2,045.3,0.398,744.9,01.17,0.508
2013-12-24 01:43:00,2127E-4,5C000000,-0724,0971,10939,026.2,045.3,0.398,744.9,01.17,0.508
2013-12-24 01:44:00,2778E-4,5C000000,-0724,0971,10710,026.2,045.3,0.397,744.9,01.17,0.508
2013-12-24 01:45:00,1131E-4,5C000000,-0724,0970,10799,026.2,045.3,0.398,744.8,01.17,0.508
2013-12-24 01:46:00,1684E-4,5C000000,-0724,0971,10919,026.2,045.3,0.398,744.9,01.17,0.508
2013-12-24 01:47:00,1382E-4,5C000000,-0724,0972,10760,026.2,045.3,0.397,744.8,01.17,0.508
2013-12-24 01:48:00,2097E-4,5C000000,-0724,0971,10833,026.2,045.3,0.398,744.9,01.17,0.508
2013-12-24 01:49:00,2961E-4,5C000000,-0724,0971,10771,026.2,045.3,0.398,744.8,01.17,0.508
2013-12-24 01:50:00,2419E-4,5C000000,-0724,0970,10867,026.2,045.3,0.397,744.8,01.17,0.508
2013-12-24 01:51:00,2398E-4,5C000000,-0724,0971,10746,026.2,045.3,0.398,744.8,01.17,0.508
2013-12-24 01:52:00,1838E-4,5C000000,-0724,0970,10814,026.2,045.3,0.398,744.8,01.17,0.508
2013-12-24 01:53:00,2156E-4,5C000000,-0724,0971,10905,026.2,045.3,0.397,744.8,01.17,0.508
2013-12-24 01:54:00,1770E-4,5C000000,-0724,0970,10831,026.2,045.3,0.398,744.9,01.17,0.508
2013-12-24 01:55:00,2108E-4,5C000000,-0724,0970,10885,026.2,045.3,0.397,744.9,01.17,0.508
2013-12-24 01:56:00,2506E-4,5C000000,-0724,0971,10780,026.2,045.3,0.397,744.9,01.17,0.508
2013-12-24 01:57:00,2108E-4,5C000000,-0724,0971,10678,026.2,045.3,0.398,744.9,01.17,0.508
2013-12-24 01:58:00,2384E-4,5C000000,-0724,0971,10858,026.2,045.3,0.397,744.9,01.17,0.508
2013-12-24 01:59:00,2494E-4,5C000000,-0724,0971,10797,026.2,045.3,0.398,744.9,01.17,0.508
2013-12-24 02:00:00,1688E-4,5C000000,-0724,0970,10896,026.2,045.3,0.398,744.9,01.17,0.508
2013-12-24 02:01:00,1896E-4,5C000000,-0724,0971,10874,026.2,045.3,0.397,744.9,01.17,0.508
2013-12-24 02:02:00,2496E-4,5C000000,-0724,0971,10734,026.2,045.3,0.398,745.0,01.17,0.508
2013-12-24 02:03:00,1806E-4,5C000000,-0724,0970,10887,026.2,045.3,0.397,744.9,01.17,0.508
2013-12-24 02:04:00,2363E-4,5C000000,-0724,0971,10698,026.2,045.3,0.397,745.0,01.17,0.508
2013-12-24 02:05:00,2611E-4,5C000000,-0724,0970,10728,026.2,045.3,0.398,745.0,01.17,0.508
2013-12-24 02:06:00,2251E-4,5C000000,-0724,0971,10971,026.2,045.3,0.397,745.0,01.17,0.508
2013-12-24 02:07:00,2469E-4,5C000000,-0724,0971,10917,026.2,045.3,0.398,745.0,01.17,0.508
2013-12-24 02:08:00,1196E-4,5C000000,-0724,0970,10915,026.2,045.3,0.397,744.9,01.17,0.508
2013-12-24 02:09:00,2770E-4,5C000000,-0724,0971,10806,026.2,045.3,0.397,744.9,01.17,0.508
2013-12-24 02:10:00,1832E-4,5C000000,-0724,0971,10836,026.2,045.3,0.397,744.9,01.17,0.508
2013-12-24 02:11:00,1872E-4,5C000000,-0724,0970,10849,026.3,045.3,0.398,744.9,01.17,0.508
2013-12-24 02:12:00,2449E-4,5C000000,-0724,0970,10832,026.3,045.3,0.398,744.9,01.17,0.508
2013-12-24 02:13:00,1562E-4,5C000000,-0724,0970,10746,026.3,045.3,0.397,744.9,01.17,0.508
2013-12-24 02:14:00,1959E-4,5C000000,-0724,0971,10852,026.3,045.3,0.398,744.9,01.17,0.508
2013-12-24 02:15:00,1793E-4,5C000000,-0724,0971,10865,026.3,045.3,0.398,744.9,01.17,0.508
2013-12-24 02:16:00,2034E-4,5C000000,-0724,0970,10858,026.3,045.3,0.397,744.8,01.17,0.508
2013-12-24 02:17:00,1532E-4,5C000000,-0724,0970,10894,026.3,045.3,0.398,744.9,01.17,0.508
2013-12-24 02:18:00,2311E-4,5C000000,-0724,0971,10699,026.3,045.3,0.397,744.9,01.17,0.508
2013-12-24 02:19:00,9748E-5,5C000000,-0724,0972,10913,026.3,045.3,0.397,744.9,01.17,0.508
2013-12-24 02:20:00,2175E-4,5C000000,-0724,0972,10674,026.3,045.3,0.398,744.9,01.17,0.508
2013-12-24 02:21:00,2757E-4,5C000000,-0724,0971,10812,026.3,045.3,0.397,744.8,01.17,0.508
2013-12-24 02:22:00,2168E-4,5C000000,-0724,0971,10836,026.3,045.3,0.397,744.8,01.17,0.508
2013-12-24 02:23:00,2737E-4,5C000000,-0724,0972,10803,026.2,045.3,0.398,744.8,01.17,0.508
2013-12-24 02:24:00,1981E-4,5C000000,-0724,0971,10918,026.3,045.3,0.397,744.8,01.17,0.508
2013-12-24 02:25:00,1860E-4,5C000000,-0724,0971,10893,026.2,045.3,0.397,744.8,01.17,0.508
2013-12-24 02:26:00,2755E-4,5C000000,-0724,0971,10861,026.3,045.3,0.398,744.7,01.17,0.508
2013-12-24 02:27:00,2514E-4,5C000000,-0724,0971,10636,026.3,045.3,0.397,744.7,01.17,0.508
2013-12-24 02:28:00,2123E-4,5C000000,-0724,0972,10812,026.3,045.3,0.397,744.7,01.17,0.508
2013-12-24 02:29:00,1690E-4,5C000000,-0724,0971,10886,026.4,045.3,0.397,744.7,01.17,0.508
2013-12-24 02:30:00,2003E-4,5C000000,-0724,0971,10717,026.5,045.3,0.397,744.7,01.17,0.508
2013-12-24 02:31:00,2568E-4,5C000000,-0724,0972,10800,026.6,045.3,0.397,744.7,01.17,0.508
2013-12-24 02:32:00,2636E-4,5C000000,-0724,0972,10883,026.8,045.3,0.397,744.7,01.17,0.508
2013-12-24 02:33:00,2286E-4,5C000000,-0724,0973,10788,026.9,045.3,0.396,744.7,01.17,0.508
2013-12-24 02:34:00,1823E-4,5C000000,-0724,0972,10856,027.0,045.3,0.396,744.7,01.17,0.508
2013-12-24 02:35:00,2505E-4,5C000000,-0724,0972,10914,027.0,045.3,0.396,744.7,01.17,0.508
2013-12-24 02:36:00,1879E-4,5C000000,-0724,0972,10686,027.1,045.3,0.396,744.7,01.17,0.508
2013-12-24 02:37:00,1763E-4,5C000000,-0724,0972,10757,027.2,045.3,0.396,744.7,01.17,0.508
2013-12-24 02:38:00,1967E-4,5C000000,-0724,0973,10851,027.3,045.3,0.396,744.7,01.17,0.508
2013-12-24 02:39:00,2890E-4,5C000000,-0724,0973,10719,027.4,045.3,0.396,744.7,01.17,0.508
2013-12-24 02:40:00,2677E-4,5C000000,-0724,0973,10844,027.5,045.3,0.395,744.7,01.17,0.508
2013-12-24 02:41:00,2082E-4,5C000000,-0724,0974,10778,027.6,045.3,0.395,744.7,01.17,0.508
2013-12-24 02:42:00,2422E-4,5C000000,-0724,0974,10628,027.6,045.3,0.395,744.7,01.17,0.508
2013-12-24 02:43:00,2317E-4,5C000000,-0724,0974,10867,027.7,045.3,0.395,744.7,01.17,0.508
2013-12-24 02:44:00,3190E-4,5C000000,-0724,0974,10842,027.8,045.3,0.395,744.7,01.17,0.508
2013-12-24 02:45:00,2232E-4,5C000000,-0724,0974,10599,027.8,045.3,0.395,744.7,01.17,0.508
2013-12-24 02:46:00,1923E-4,5C000000,-0724,0974,10645,027.9,045.4,0.395,744.7,01.17,0.508
2013-12-24 02:47:00,2372E-4,5C000000,-0724,0973,10840,028.0,045.4,0.394,744.7,01.17,0.508
2013-12-24 02:48:00,2010E-4,5C000000,-0724,0976,10802,028.0,045.4,0.394,744.7,01.17,0.508
2013-12-24 02:49:00,2550E-4,5C000000,-0724,0975,10921,028.1,045.3,0.395,744.7,01.17,0.508
2013-12-24 02:50:00,2762E-4,5C000000,-0724,0974,10827,028.1,045.3,0.394,744.7,01.17,0.508
2013-12-24 02:51:00,2151E-4,5C000000,-0724,0974,10763,028.2,045.4,0.394,744.7,01.17,0.508
2013-12-24 02:52:00,2656E-4,5C000000,-0724,0974,10739,028.3,045.4,0.394,744.7,01.17,0.508
2013-12-24 02:53:00,2721E-4,5C000000,-0724,0975,10862,028.3,045.4,0.394,744.7,01.17,0.508
2013-12-24 02:54:00,2186E-4,5C000000,-0724,0975,10641,028.4,045.4,0.393,744.7,01.17,0.508
2013-12-24 02:55:00,2117E-4,5C000000,-0724,0975,10758,028.4,045.4,0.394,744.7,01.17,0.508
2013-12-24 02:56:00,2513E-4,5C000000,-0724,0975,10793,028.5,045.4,0.394,744.7,01.17,0.508
2013-12-24 02:57:00,2010E-4,5C000000,-0724,0975,10838,028.5,045.3,0.393,744.7,01.17,0.508
2013-12-24 02:58:00,1520E-4,5C000000,-0724,0975,10841,028.6,045.4,0.393,744.7,01.17,0.508
2013-12-24 02:59:00,2018E-4,5C000000,-0724,0976,10709,028.6,045.4,0.393,744.7,01.17,0.508
2013-12-24 03:00:00,2186E-4,5C000000,-0724,0975,10845,028.7,045.4,0.393,744.7,01.17,0.508
2013-12-24 03:01:00,1746E-4,5C000000,-0724,0976,10864,028.7,045.3,0.393,744.8,01.17,0.508
2013-12-24 03:02:00,1688E-4,5C000000,-0724,0976,10762,028.8,045.4,0.393,744.8,01.17,0.508
2013-12-24 03:03:00,2264E-4,5C000000,-0724,0976,10752,028.8,045.4,0.392,744.8,01.17,0.508
2013-12-24 03:04:00,3165E-4,5C000000,-0724,0975,10898,028.8,045.4,0.393,744.8,01.17,0.508
2013-12-24 03:05:00,2738E-4,5C000000,-0724,0976,10655,028.9,045.4,0.393,744.8,01.17,0.508
2013-12-24 03:06:00,2015E-4,5C000000,-0724,0977,10853,028.9,045.4,0.392,744.8,01.17,0.508
2013-12-24 03:07:00,3116E-4,5C000000,-0724,0976,10620,029.0,045.4,0.393,744.8,01.17,0.508
2013-12-24 03:08:00,1928E-4,5C000000,-0724,0976,10830,029.0,045.4,0.392,744.8,01.17,0.508
2013-12-24 03:09:00,2298E-4,5C000000,-0724,0977,10697,029.0,045.4,0.393,744.7,01.17,0.508
2013-12-24 03:10:00,1941E-4,5C000000,-0724,0977,10868,029.1,045.4,0.392,744.7,01.17,0.508
2013-12-24 03:11:00,2625E-4,5C000000,-0724,0976,10687,029.1,045.4,0.392,744.7,01.17,0.508
2013-12-24 03:12:00,1607E-4,5C000000,-0724,0977,10729,029.1,045.4,0.392,744.7,01.17,0.508
2013-12-24 03:13:00,2345E-4,5C000000,-0724,0976,10762,029.2,045.4,0.392,744.7,01.17,0.508
2013-12-24 03:14:00,2295E-4,5C000000,-0724,0975,10694,029.2,045.4,0.392,744.7,01.17,0.508
2013-12-24 03:15:00,3031E-4,5C000000,-0724,0977,10631,029.2,045.4,0.391,744.7,01.17,0.508
2013-12-24 03:16:00,2858E-4,5C000000,-0724,0977,10671,029.3,045.4,0.392,744.7,01.17,0.508
2013-12-24 03:17:00,1794E-4,5C000000,-0724,0977,10827,029.3,045.4,0.391,744.6,01.17,0.508
2013-12-24 03:18:00,1993E-4,5C000000,-0724,0977,10726,029.3,045.4,0.392,744.6,01.17,0.508
2013-12-24 03:19:00,2100E-4,5C000000,-0724,0977,10736,029.3,045.4,0.391,744.6,01.17,0.508
2013-12-24 03:20:00,3149E-4,5C000000,-0724,0976,10849,029.3,045.4,0.392,744.7,01.17,0.508
2013-12-24 03:21:00,2622E-4,5C000000,-0724,0976,10862,029.4,045.4,0.391,744.7,01.17,0.508
2013-12-24 03:22:00,3362E-4,5C000000,-0724,0977,10864,029.4,045.4,0.392,744.7,01.17,0.508
2013-12-24 03:23:00,2638E-4,5C000000,-0724,0977,10654,029.4,045.4,0.391,744.7,01.17,0.508
2013-12-24 03:24:00,2651E-4,5C000000,-0724,0977,10674,029.5,045.4,0.392,744.6,01.17,0.508
2013-12-24 03:25:00,2139E-4,5C000000,-0724,0977,10765,029.5,045.4,0.391,744.6,01.17,0.508
2013-12-24 03:26:00,2204E-4,5C000000,-0724,0977,10739,029.5,045.4,0.391,744.6,01.17,0.508
2013-12-24 03:27:00,1757E-4,5C000000,-0724,0977,10815,029.5,045.4,0.391,744.6,01.17,0.508
2013-12-24 03:28:00,1732E-4,5C000000,-0724,0976,10743,029.5,045.4,0.391,744.7,01.17,0.508
2013-12-24 03:29:00,2842E-4,5C000000,-0724,0978,10849,029.6,045.4,0.391,744.7,01.17,0.508
2013-12-24 03:30:00,2563E-4,5C000000,-0724,0977,10811,029.6,045.4,0.391,744.7,01.17,0.508
2013-12-24 03:31:00,1204E-4,5C000000,-0724,0978,10817,029.6,045.4,0.391,744.7,01.17,0.508
2013-12-24 03:32:00,2363E-4,5C000000,-0724,0977,10755,029.6,045.4,0.391,744.6,01.17,0.508
2013-12-24 03:33:00,2117E-4,5C000000,-0724,0977,10784,029.6,045.4,0.391,744.6,01.17,0.508
2013-12-24 03:34:00,2100E-4,5C000000,-0724,0977,10831,029.6,045.4,0.391,744.6,01.17,0.508
2013-12-24 03:35:00,2543E-4,5C000000,-0724,0978,10735,029.7,045.4,0.391,744.6,01.17,0.508
2013-12-24 03:36:00,2743E-4,5C000000,-0724,0978,10596,029.7,045.4,0.391,744.6,01.17,0.508
2013-12-24 03:37:00,2990E-4,5C000000,-0724,0978,10787,029.7,045.4,0.391,744.6,01.17,0.508
2013-12-24 03:38:00,1922E-4,5C000000,-0724,0977,10871,029.7,045.4,0.390,744.6,01.17,0.508
2013-12-24 03:39:00,2788E-4,5C000000,-0724,0978,10684,029.7,045.4,0.391,744.5,01.17,0.508
2013-12-24 03:40:00,2503E-4,5C000000,-0724,0978,10829,029.7,045.4,0.391,744.6,01.17,0.508
2013-12-24 03:41:00,1617E-4,5C000000,-0724,0978,10811,029.8,045.4,0.391,744.6,01.17,0.508
2013-12-24 03:42:00,2353E-4,5C000000,-0724,0977,10707,029.8,045.4,0.391,744.5,01.17,0.508
2013-12-24 03:43:00,2586E-4,5C000000,-0724,0977,10609,029.8,045.4,0.390,744.5,01.17,0.508
2013-12-24 03:44:00,1898E-4,5C000000,-0724,0977,10797,029.8,045.4,0.391,744.5,01.17,0.508
2013-12-24 03:45:00,2706E-4,5C000000,-0724,0978,10723,029.8,045.4,0.391,744.5,01.17,0.508
2013-12-24 03:46:00,2777E-4,5C000000,-0724,0979,10672,029.8,045.4,0.390,744.5,01.17,0.508
2013-12-24 03:47:00,2452E-4,5C000000,-0724,0978,10766,029.8,045.4,0.391,744.5,01.17,0.508
2013-12-24 03:48:00,2860E-4,5C000000,-0724,0978,10752,029.8,045.4,0.390,744.5,01.17,0.508
2013-12-24 03:49:00,3018E-4,5C000000,-0724,0978,10890,029.9,045.4,0.391,744.5,01.17,0.508
2013-12-24 03:50:00,2289E-4,5C000000,-0724,0978,10703,029.9,045.4,0.390,744.5,01.17,0.508
2013-12-24 03:51:00,2320E-4,5C000000,-0724,0977,10738,029.9,045.4,0.391,744.5,01.17,0.508
2013-12-24 03:52:00,2683E-4,5C000000,-0724,0978,10730,029.9,045.4,0.391,744.5,01.17,0.508
2013-12-24 03:53:00,2396E-4,5C000000,-0724,0978,10887,029.9,045.4,0.390,744.5,01.17,0.508
2013-12-24 03:54:00,2240E-4,5C000000,-0724,0979,10800,029.9,045.4,0.391,744.5,01.17,0.508
2013-12-24 03:55:00,2491E-4,5C000000,-0724,0977,10813,029.9,045.4,0.390,744.5,01.17,0.508
2013-12-24 03:56:00,1921E-4,5C000000,-0724,0977,10727,029.9,045.4,0.391,744.5,01.17,0.508
2013-12-24 03:57:00,2682E-4,5C000000,-0724,0978,10775,029.9,045.4,0.390,744.5,01.17,0.508
2013-12-24 03:58:00,2632E-4,5C000000,-0724,0978,10794,030.0,045.4,0.390,744.5,01.17,0.508
2013-12-24 03:59:00,2142E-4,5C000000,-0724,0979,10846,030.0,045.4,0.391,744.5,01.17,0.508
2013-12-24 04:00:00,2587E-4,5C000000,-0724,0978,10746,030.0,045.4,0.390,744.5,01.17,0.508
2013-12-24 04:01:00,2808E-4,5C000000,-0724,0978,10656,030.0,045.4,0.390,744.6,01.17,0.508
2013-12-24 04:02:00,1799E-4,5C000000,-0724,0977,10729,030.0,045.4,0.390,744.6,01.17,0.508
2013-12-24 04:03:00,2130E-4,5C000000,-0724,0978,10800,030.0,045.4,0.390,744.6,01.17,0.508
2013-12-24 04:04:00,1437E-4,5C000000,-0724,0977,10842,030.0,045.4,0.391,744.6,01.17,0.508
2013-12-24 04:05:00,2928E-4,5C000000,-0724,0980,10703,030.0,045.4,0.390,744.6,01.17,0.508
2013-12-24 04:06:00,1642E-4,5C000000,-0724,0978,10796,030.0,045.4,0.390,744.6,01.17,0.508
2013-12-24 04:07:00,2695E-4,5C000000,-0724,0978,10845,030.0,045.4,0.391,744.6,01.17,0.508
2013-12-24 04:08:00,2492E-4,5C000000,-0724,0979,10797,030.0,045.4,0.390,744.6,01.17,0.508
2013-12-24 04:09:00,2134E-4,5C000000,-0724,0978,10735,030.0,045.4,0.390,744.6,01.17,0.508
2013-12-24 04:10:00,2222E-4,5C000000,-0724,0978,10820,030.0,045.4,0.391,744.6,01.17,0.508
2013-12-24 04:11:00,2152E-4,5C000000,-0724,0978,10792,030.0,045.4,0.390,744.6,01.17,0.508
2013-12-24 04:12:00,3002E-4,5C000000,-0724,0979,10667,030.1,045.4,0.390,744.6,01.17,0.508
2013-12-24 04:13:00,3070E-4,5C000000,-0724,0979,10773,030.0,045.4,0.391,744.6,01.17,0.508
2013-12-24 04:14:00,3283E-4,5C000000,-0724,0978,10671,030.0,045.4,0.390,744.6,01.17,0.508
2013-12-24 04:15:00,2516E-4,5C000000,-0724,0978,10886,030.1,045.4,0.391,744.6,01.17,0.508
2013-12-24 04:16:00,2093E-4,5C000000,-0724,0978,10752,030.0,045.4,0.390,744.7,01.17,0.508
2013-12-24 04:17:00,2635E-4,5C000000,-0724,0979,10562,030.0,045.4,0.390,744.7,01.17,0.508
2013-12-24 04:18:00,1980E-4,5C000000,-0724,0979,10874,030.0,045.4,0.391,744.7,01.17,0.508
2013-12-24 04:19:00,2187E-4,5C000000,-0724,0978,10650,030.1,045.4,0.390,744.7,01.17,0.508
2013-12-24 04:20:00,1677E-4,5C000000,-0724,0978,10655,030.1,045.4,0.390,744.6,01.17,0.508